| time (UTC) | temp F | wind direction | speed knots | gust knots | rain 1hr in | rain 24hr in | rain mn in | humidity % | barometer mb |
| 20260507183011 | 62 | 89 | 1.7 | 5.2 | 0.00 | 0.00 | 0.00 | 29 | 1004.2 |
| 20260507182507 | 62 | 64 | 0.9 | 7.0 | 0.00 | 0.00 | 0.00 | 29 | 1004.4 |
| 20260507182003 | 62 | 154 | 0.0 | 2.6 | 0.00 | 0.00 | 0.00 | 31 | 1004.4 |
| 20260507181500 | 62 | 189 | 1.7 | 1.7 | 0.00 | 0.00 | 0.00 | 32 | 1004.3 |
| 20260507180956 | 62 | 154 | 1.7 | 2.6 | 0.00 | 0.00 | 0.00 | 29 | 1004.3 |
| 20260507180453 | 61 | 68 | 0.9 | 1.7 | 0.00 | 0.00 | 0.00 | 32 | 1004.6 |
| 20260507175949 | 62 | 168 | 0.9 | 4.3 | 0.00 | 0.00 | 0.00 | 30 | 1004.4 |
| 20260507175446 | 62 | 32 | 0.0 | 1.7 | 0.00 | 0.00 | 0.00 | 30 | 1004.5 |
| 20260507174944 | 61 | 14 | 1.7 | 4.3 | 0.00 | 0.00 | 0.00 | 30 | 1004.4 |
| 20260507174441 | 61 | 157 | 0.9 | 1.7 | 0.00 | 0.00 | 0.00 | 31 | 1004.5 |
| 20260507173938 | 61 | 209 | 1.7 | 1.7 | 0.00 | 0.00 | 0.00 | 32 | 1004.2 |
| 20260507173435 | 61 | 176 | 2.6 | 4.3 | 0.00 | 0.00 | 0.00 | 32 | 1004.2 |
| 20260507172932 | 61 | 3 | 1.7 | 5.2 | 0.00 | 0.00 | 0.00 | 29 | 1004.4 |
| 20260507172428 | 61 | 126 | 2.6 | 4.3 | 0.00 | 0.00 | 0.00 | 30 | 1004.3 |
| 20260507171925 | 61 | 96 | 0.9 | 5.2 | 0.00 | 0.00 | 0.00 | 34 | 1004.2 |
| 20260507171421 | 61 | 351 | 0.9 | 1.7 | 0.00 | 0.00 | 0.00 | 33 | 1004.4 |
| 20260507170918 | 62 | 255 | 2.6 | 2.6 | 0.00 | 0.00 | 0.00 | 30 | 1004.2 |
| 20260507170415 | 61 | 100 | 2.6 | 4.3 | 0.00 | 0.00 | 0.00 | 29 | 1004.4 |
| 20260507165911 | 61 | 13 | 2.6 | 2.6 | 0.00 | 0.00 | 0.00 | 31 | 1004.6 |
| 20260507165407 | 61 | 6 | 2.6 | 7.8 | 0.00 | 0.00 | 0.00 | 31 | 1004.6 |
| 20260507164903 | 61 | 334 | 2.6 | 4.3 | 0.00 | 0.00 | 0.00 | 32 | 1004.7 |
| 20260507164400 | 60 | 128 | 0.0 | 1.7 | 0.00 | 0.00 | 0.00 | 34 | 1004.5 |
| 20260507163857 | 60 | 109 | 0.9 | 1.7 | 0.00 | 0.00 | 0.00 | 34 | 1004.8 |
| 20260507163355 | 60 | 218 | 2.6 | 2.6 | 0.00 | 0.00 | 0.00 | 35 | 1004.9 |
| 20260507162851 | 60 | 136 | 0.0 | 5.2 | 0.00 | 0.00 | 0.00 | 42 | 1004.8 |
| 20260507162346 | 60 | 130 | 0.9 | 4.3 | 0.00 | 0.00 | 0.00 | 34 | 1004.9 |
| 20260507161844 | 60 | 357 | 0.9 | 6.1 | 0.00 | 0.00 | 0.00 | 37 | 1005.0 |
| 20260507161340 | 60 | 308 | 2.6 | 4.3 | 0.00 | 0.00 | 0.00 | 38 | 1005.2 |
| 20260507160837 | 59 | 278 | 1.7 | 4.3 | 0.00 | 0.00 | 0.00 | 36 | 1005.2 |
| 20260507160332 | 59 | 190 | 0.9 | 2.6 | 0.00 | 0.00 | 0.00 | 41 | 1005.1 |
| 20260507155829 | 58 | 123 | 0.0 | 0.9 | 0.00 | 0.00 | 0.00 | 42 | 1005.1 |
| 20260507155325 | 58 | 144 | 0.9 | 6.1 | 0.00 | 0.00 | 0.00 | 40 | 1005.1 |
| 20260507154822 | 59 | 123 | 0.9 | 2.6 | 0.00 | 0.00 | 0.00 | 42 | 1005.1 |
| 20260507154319 | 58 | 347 | 1.7 | 2.6 | 0.00 | 0.00 | 0.00 | 45 | 1005.0 |
| 20260507153816 | 58 | 105 | 0.9 | 4.3 | 0.00 | 0.00 | 0.00 | 43 | 1005.3 |
| 20260507153312 | 58 | 4 | 1.7 | 11.3 | 0.00 | 0.00 | 0.00 | 40 | 1005.6 |
| 20260507152809 | 57 | 115 | 1.7 | 2.6 | 0.00 | 0.00 | 0.00 | 43 | 1005.4 |
| 20260507152306 | 56 | 102 | 0.9 | 7.8 | 0.00 | 0.00 | 0.00 | 47 | 1005.5 |
| 20260507151801 | 57 | 102 | 0.9 | 1.7 | 0.00 | 0.00 | 0.00 | 53 | 1005.6 |
| 20260507151258 | 57 | 16 | 2.6 | 2.6 | 0.00 | 0.00 | 0.00 | 53 | 1005.4 |
| 20260507150755 | 57 | 122 | 0.9 | 1.7 | 0.00 | 0.00 | 0.00 | 54 | 1005.5 |
| 20260507150251 | 56 | 108 | 0.9 | 5.2 | 0.00 | 0.00 | 0.00 | 55 | 1005.6 |
| 20260507145748 | 56 | 81 | 0.0 | 2.6 | 0.00 | 0.00 | 0.00 | 53 | 1005.6 |
| 20260507145244 | 57 | 177 | 1.7 | 2.6 | 0.00 | 0.00 | 0.00 | 53 | 1005.7 |
| 20260507144741 | 58 | 102 | 0.9 | 1.7 | 0.00 | 0.00 | 0.00 | 53 | 1005.6 |
| 20260507144239 | 57 | 170 | 0.9 | 2.6 | 0.00 | 0.00 | 0.00 | 55 | 1005.7 |
| 20260507143735 | 56 | 134 | 0.0 | 0.9 | 0.00 | 0.00 | 0.00 | 57 | 1005.6 |
| 20260507143233 | 56 | 120 | 0.9 | 1.7 | 0.00 | 0.00 | 0.00 | 59 | 1005.8 |
| 20260507142728 | 56 | 85 | 0.9 | 1.7 | 0.00 | 0.00 | 0.00 | 57 | 1005.7 |
| 20260507142225 | 56 | 127 | 0.0 | 0.9 | 0.00 | 0.00 | 0.00 | 60 | 1005.5 |
| 20260507141721 | 57 | 107 | 0.9 | 1.7 | 0.00 | 0.00 | 0.00 | 57 | 1005.7 |
| 20260507141219 | 57 | 354 | 2.6 | 2.6 | 0.00 | 0.00 | 0.00 | 57 | 1005.6 |
| 20260507140714 | 57 | 89 | 0.9 | 1.7 | 0.00 | 0.00 | 0.00 | 59 | 1005.5 |
| 20260507140213 | 57 | 128 | 0.9 | 0.9 | 0.00 | 0.00 | 0.00 | 57 | 1005.4 |
| 20260507135709 | 57 | 92 | 0.0 | 2.6 | 0.00 | 0.00 | 0.00 | 55 | 1005.5 |
| 20260507135207 | 56 | 99 | 0.0 | 1.7 | 0.00 | 0.00 | 0.00 | 58 | 1005.5 |
| 20260507134703 | 54 | 131 | 0.9 | 6.1 | 0.00 | 0.00 | 0.00 | 61 | 1005.6 |
| 20260507134159 | 55 | 120 | 0.0 | 0.9 | 0.00 | 0.00 | 0.00 | 60 | 1005.4 |
| 20260507133655 | 55 | 183 | 0.9 | 0.9 | 0.00 | 0.00 | 0.00 | 60 | 1005.4 |
| 20260507133152 | 55 | 101 | 0.9 | 0.9 | 0.00 | 0.00 | 0.00 | 60 | 1005.4 |
| 20260507132649 | 55 | 104 | 0.0 | 0.9 | 0.00 | 0.00 | 0.00 | 61 | 1005.3 |
| 20260507132145 | 55 | 118 | 0.9 | 0.9 | 0.00 | 0.00 | 0.00 | 61 | 1005.6 |
| 20260507131643 | 55 | 160 | 0.9 | 1.7 | 0.00 | 0.00 | 0.00 | 61 | 1005.8 |
| 20260507131140 | 55 | 104 | 0.9 | 1.7 | 0.00 | 0.00 | 0.00 | 62 | 1005.8 |
| 20260507130636 | 56 | 181 | 1.7 | 1.7 | 0.00 | 0.00 | 0.00 | 62 | 1005.8 |
| 20260507130134 | 56 | 110 | 0.9 | 0.9 | 0.00 | 0.00 | 0.00 | 60 | 1005.8 |
| 20260507125633 | 55 | 104 | 0.0 | 0.9 | 0.00 | 0.00 | 0.00 | 64 | 1005.8 |
| 20260507125131 | 54 | 50 | 0.9 | 1.7 | 0.00 | 0.00 | 0.00 | 66 | 1005.8 |
| 20260507124626 | 54 | 123 | 0.0 | 1.7 | 0.00 | 0.00 | 0.00 | 65 | 1005.8 |
| 20260507124124 | 54 | 105 | 0.0 | 0.9 | 0.00 | 0.00 | 0.00 | 66 | 1005.8 |
| 20260507123622 | 53 | 104 | 0.9 | 1.7 | 0.00 | 0.00 | 0.00 | 67 | 1005.7 |
| 20260507123119 | 53 | 48 | 0.9 | 1.7 | 0.00 | 0.00 | 0.00 | 68 | 1005.9 |
| 20260507122614 | 52 | 124 | 0.0 | 0.9 | 0.00 | 0.00 | 0.00 | 71 | 1005.9 |
| 20260507122110 | 52 | 52 | 0.9 | 1.7 | 0.00 | 0.00 | 0.00 | 71 | 1005.9 |
| 20260507121606 | 51 | 17 | 1.7 | 2.6 | 0.00 | 0.00 | 0.00 | 73 | 1006.1 |
| 20260507121102 | 51 | 44 | 0.9 | 0.9 | 0.00 | 0.00 | 0.00 | 76 | 1006.1 |
| 20260507120558 | 50 | 140 | 0.9 | 0.9 | 0.00 | 0.00 | 0.00 | 78 | 1005.8 |
| 20260507120055 | 50 | 133 | 0.0 | 0.0 | 0.00 | 0.00 | 0.00 | 78 | 1005.9 |
| 20260507115552 | 49 | 98 | 0.9 | 0.9 | 0.00 | 0.00 | 0.00 | 78 | 1006.1 |
| 20260507115048 | 49 | 118 | 0.0 | 0.0 | 0.00 | 0.00 | 0.00 | 80 | 1006.0 |
| 20260507114543 | 49 | 121 | 0.0 | 0.0 | 0.00 | 0.00 | 0.00 | 80 | 1005.9 |
| 20260507114041 | 49 | 89 | 0.0 | 0.0 | 0.00 | 0.00 | 0.00 | 80 | 1005.9 |
| 20260507113538 | 49 | 85 | 0.0 | 0.9 | 0.00 | 0.00 | 0.00 | 80 | 1006.1 |
| 20260507113035 | 49 | 85 | 0.0 | 0.0 | 0.00 | 0.00 | 0.00 | 79 | 1006.0 |
| 20260507112533 | 49 | 119 | 0.0 | 0.9 | 0.00 | 0.00 | 0.00 | 79 | 1005.9 |
| 20260507112029 | 49 | 47 | 0.0 | 0.0 | 0.00 | 0.00 | 0.00 | 80 | 1005.6 |
| 20260507111527 | 48 | 108 | 0.0 | 0.0 | 0.00 | 0.00 | 0.00 | 81 | 1005.8 |
| 20260507111023 | 48 | 100 | 0.0 | 0.0 | 0.00 | 0.00 | 0.00 | 81 | 1005.8 |
| 20260507110520 | 48 | 353 | 0.9 | 1.7 | 0.00 | 0.00 | 0.00 | 81 | 1005.7 |
| 20260507110016 | 48 | 54 | 0.0 | 0.9 | 0.00 | 0.00 | 0.00 | 82 | 1005.8 |
| 20260507105513 | 48 | 125 | 0.0 | 0.0 | 0.00 | 0.00 | 0.00 | 82 | 1005.7 |
| 20260507105009 | 48 | 123 | 0.0 | 0.9 | 0.00 | 0.00 | 0.00 | 82 | 1005.6 |
| 20260507104507 | 48 | 113 | 0.9 | 0.9 | 0.00 | 0.00 | 0.00 | 82 | 1005.4 |
| 20260507104003 | 48 | 127 | 0.0 | 0.0 | 0.00 | 0.00 | 0.00 | 82 | 1005.5 |
| 20260507103500 | 48 | 127 | 0.0 | 0.9 | 0.00 | 0.00 | 0.00 | 81 | 1005.2 |
| 20260507102955 | 48 | 77 | 0.0 | 0.0 | 0.00 | 0.00 | 0.00 | 81 | 1005.1 |
| 20260507102452 | 48 | 5 | 1.7 | 4.3 | 0.00 | 0.00 | 0.00 | 81 | 1004.9 |
| 20260507101949 | 48 | 95 | 0.0 | 0.0 | 0.00 | 0.00 | 0.00 | 82 | 1005.2 |
| 20260507101444 | 48 | 87 | 0.0 | 0.0 | 0.00 | 0.00 | 0.00 | 80 | 1005.0 |
| 20260507100940 | 48 | 99 | 0.0 | 0.9 | 0.00 | 0.00 | 0.00 | 82 | 1005.2 |
| 20260507100438 | 48 | 104 | 0.0 | 0.9 | 0.00 | 0.00 | 0.00 | 81 | 1005.2 |
| 20260507095936 | 48 | 155 | 0.9 | 0.9 | 0.00 | 0.00 | 0.00 | 82 | 1005.0 |
| 20260507095433 | 48 | 105 | 0.9 | 0.9 | 0.00 | 0.00 | 0.00 | 83 | 1005.1 |
| 20260507094930 | 48 | 96 | 0.0 | 0.9 | 0.00 | 0.00 | 0.00 | 83 | 1005.1 |
| 20260507094426 | 48 | 59 | 0.0 | 0.9 | 0.00 | 0.00 | 0.00 | 82 | 1005.2 |
| 20260507093923 | 48 | 96 | 0.0 | 0.9 | 0.00 | 0.00 | 0.00 | 82 | 1005.5 |
| 20260507093421 | 48 | 117 | 0.0 | 0.0 | 0.00 | 0.00 | 0.00 | 84 | 1005.3 |
| 20260507092920 | 48 | 105 | 0.0 | 0.0 | 0.00 | 0.00 | 0.00 | 83 | 1005.5 |
| 20260507092415 | 48 | 111 | 0.0 | 0.9 | 0.00 | 0.00 | 0.00 | 84 | 1005.4 |
| 20260507091912 | 48 | 138 | 0.0 | 0.0 | 0.00 | 0.00 | 0.00 | 84 | 1005.2 |
| 20260507091409 | 48 | 118 | 0.0 | 0.0 | 0.00 | 0.00 | 0.00 | 84 | 1005.3 |
| 20260507090904 | 48 | 142 | 0.0 | 0.9 | 0.00 | 0.00 | 0.00 | 85 | 1005.4 |
| 20260507090401 | 48 | 107 | 0.0 | 0.0 | 0.00 | 0.00 | 0.00 | 83 | 1005.3 |
| 20260507085858 | 48 | 116 | 0.0 | 1.7 | 0.00 | 0.00 | 0.00 | 83 | 1005.6 |
| 20260507085354 | 48 | 128 | 0.9 | 1.7 | 0.00 | 0.00 | 0.00 | 85 | 1005.5 |
| 20260507084852 | 48 | 131 | 0.0 | 0.9 | 0.00 | 0.00 | 0.00 | 85 | 1005.2 |
| 20260507084348 | 48 | 141 | 0.0 | 0.9 | 0.00 | 0.00 | 0.00 | 86 | 1005.2 |
| 20260507083846 | 48 | 120 | 0.0 | 0.0 | 0.00 | 0.00 | 0.00 | 87 | 1005.8 |
| 20260507083342 | 48 | 126 | 0.0 | 0.0 | 0.00 | 0.00 | 0.00 | 86 | 1005.2 |
| 20260507082838 | 48 | 105 | 0.0 | 0.9 | 0.00 | 0.00 | 0.00 | 88 | 1005.3 |
| 20260507082334 | 48 | 123 | 0.0 | 0.0 | 0.00 | 0.00 | 0.00 | 88 | 1005.2 |
| 20260507081831 | 48 | 121 | 0.0 | 0.0 | 0.00 | 0.00 | 0.00 | 87 | 1005.1 |
| 20260507081327 | 48 | 132 | 0.0 | 0.0 | 0.00 | 0.00 | 0.00 | 86 | 1005.0 |
| 20260507080824 | 48 | 120 | 0.0 | 0.9 | 0.00 | 0.00 | 0.00 | 84 | 1005.2 |
| 20260507080320 | 49 | 121 | 0.0 | 0.9 | 0.00 | 0.00 | 0.00 | 84 | 1005.0 |
| 20260507075816 | 49 | 78 | 0.0 | 0.0 | 0.00 | 0.00 | 0.00 | 83 | 1004.9 |
| 20260507075312 | 50 | 120 | 0.0 | 0.9 | 0.00 | 0.00 | 0.00 | 83 | 1004.9 |
| 20260507074809 | 50 | 129 | 0.0 | 0.0 | 0.00 | 0.00 | 0.00 | 81 | 1005.3 |
| 20260507074306 | 50 | 124 | 0.0 | 0.9 | 0.00 | 0.00 | 0.00 | 80 | 1005.1 |
| 20260507073803 | 50 | 132 | 0.0 | 1.7 | 0.00 | 0.00 | 0.00 | 80 | 1005.2 |
| 20260507073300 | 50 | 135 | 0.0 | 0.9 | 0.00 | 0.00 | 0.00 | 80 | 1005.4 |
| 20260507072757 | 50 | 65 | 0.9 | 1.7 | 0.00 | 0.00 | 0.00 | 81 | 1005.4 |
| 20260507072255 | 50 | 75 | 0.0 | 1.7 | 0.00 | 0.00 | 0.00 | 81 | 1004.9 |
| 20260507071752 | 51 | 103 | 0.0 | 1.7 | 0.00 | 0.00 | 0.00 | 82 | 1004.7 |
| 20260507071248 | 51 | 181 | 0.0 | 0.9 | 0.00 | 0.00 | 0.00 | 85 | 1004.7 |
| 20260507070745 | 51 | 108 | 0.9 | 0.9 | 0.00 | 0.00 | 0.00 | 86 | 1004.6 |
| 20260507070242 | 51 | 121 | 0.0 | 0.0 | 0.00 | 0.00 | 0.00 | 87 | 1004.6 |
| 20260507065739 | 51 | 104 | 0.0 | 0.9 | 0.00 | 0.00 | 0.00 | 87 | 1004.5 |
| 20260507065236 | 51 | 97 | 0.0 | 0.9 | 0.00 | 0.00 | 0.00 | 88 | 1004.8 |
| 20260507064733 | 51 | 118 | 0.0 | 0.9 | 0.00 | 0.00 | 0.00 | 88 | 1004.6 |
| 20260507064232 | 51 | 108 | 0.0 | 0.0 | 0.00 | 0.00 | 0.00 | 89 | 1004.4 |
| 20260507063728 | 51 | 110 | 0.0 | 0.0 | 0.00 | 0.00 | 0.00 | 90 | 1004.4 |
| 20260507063225 | 51 | 113 | 0.0 | 0.0 | 0.00 | 0.00 | 0.00 | 89 | 1004.5 |
| 20260507062722 | 51 | 107 | 0.0 | 0.0 | 0.00 | 0.00 | 0.00 | 89 | 1004.7 |
| 20260507062220 | 51 | 110 | 0.0 | 0.0 | 0.00 | 0.00 | 0.00 | 88 | 1004.5 |
| 20260507061718 | 51 | 102 | 0.0 | 0.0 | 0.00 | 0.00 | 0.00 | 88 | 1004.4 |
| 20260507061215 | 51 | 119 | 0.0 | 0.0 | 0.00 | 0.00 | 0.00 | 88 | 1004.4 |
| 20260507060713 | 51 | 119 | 0.0 | 0.0 | 0.00 | 0.00 | 0.00 | 89 | 1004.4 |
| 20260507060209 | 51 | 119 | 0.0 | 0.0 | 0.00 | 0.00 | 0.00 | 88 | 1004.4 |
| 20260507055705 | 51 | 119 | 0.0 | 0.0 | 0.00 | 0.00 | 0.00 | 86 | 1004.4 |
| 20260507055201 | 51 | 118 | 0.0 | 0.0 | 0.00 | 0.00 | 0.00 | 87 | 1004.5 |
| 20260507054657 | 51 | 119 | 0.0 | 0.0 | 0.00 | 0.00 | 0.00 | 86 | 1004.7 |
| 20260507054154 | 51 | 121 | 0.0 | 0.0 | 0.00 | 0.00 | 0.00 | 87 | 1004.8 |
| 20260507053652 | 51 | 114 | 0.0 | 0.0 | 0.00 | 0.00 | 0.00 | 86 | 1005.1 |
| 20260507053150 | 51 | 124 | 0.0 | 0.0 | 0.00 | 0.00 | 0.00 | 87 | 1005.3 |
| 20260507052648 | 51 | 126 | 0.0 | 0.0 | 0.00 | 0.00 | 0.00 | 85 | 1005.0 |
| 20260507052144 | 51 | 41 | 0.0 | 1.7 | 0.00 | 0.00 | 0.00 | 83 | 1005.1 |
| 20260507051642 | 51 | 27 | 0.9 | 0.9 | 0.00 | 0.00 | 0.00 | 86 | 1004.9 |
| 20260507051138 | 51 | 126 | 0.0 | 0.0 | 0.00 | 0.00 | 0.00 | 87 | 1005.0 |
| 20260507050636 | 52 | 151 | 0.0 | 0.9 | 0.00 | 0.00 | 0.00 | 87 | 1005.2 |
| 20260507050132 | 52 | 69 | 0.0 | 0.9 | 0.00 | 0.00 | 0.00 | 85 | 1005.2 |
| 20260507045629 | 52 | 100 | 0.0 | 0.0 | 0.00 | 0.00 | 0.00 | 87 | 1005.1 |
| 20260507045126 | 52 | 123 | 0.0 | 0.0 | 0.00 | 0.00 | 0.00 | 88 | 1004.8 |
| 20260507044623 | 53 | 56 | 0.9 | 1.7 | 0.00 | 0.00 | 0.00 | 86 | 1004.7 |
| 20260507044120 | 53 | 63 | 0.0 | 2.6 | 0.00 | 0.00 | 0.00 | 89 | 1004.7 |
| 20260507043616 | 53 | 129 | 0.0 | 4.3 | 0.00 | 0.00 | 0.00 | 90 | 1004.8 |
| 20260507043113 | 54 | 109 | 0.0 | 0.0 | 0.00 | 0.00 | 0.00 | 92 | 1004.7 |
| 20260507042609 | 54 | 5 | 0.9 | 2.6 | 0.00 | 0.00 | 0.00 | 92 | 1004.8 |
| 20260507042104 | 54 | 116 | 0.0 | 0.0 | 0.00 | 0.00 | 0.00 | 93 | 1004.9 |
| 20260507041601 | 54 | 96 | 0.0 | 0.0 | 0.00 | 0.00 | 0.00 | 93 | 1004.9 |
| 20260507041058 | 54 | 115 | 0.0 | 0.0 | 0.00 | 0.00 | 0.00 | 93 | 1004.9 |
| 20260507040555 | 54 | 126 | 0.0 | 0.0 | 0.00 | 0.00 | 0.00 | 92 | 1004.8 |
| 20260507040051 | 55 | 122 | 0.0 | 0.0 | 0.00 | 0.00 | 0.00 | 92 | 1004.9 |
| 20260507035547 | 55 | 111 | 0.0 | 0.0 | 0.00 | 0.00 | 0.00 | 91 | 1004.9 |
| 20260507035043 | 55 | 153 | 0.0 | 0.9 | 0.00 | 0.00 | 0.00 | 91 | 1005.0 |
| 20260507034540 | 56 | 123 | 0.0 | 0.0 | 0.00 | 0.00 | 0.00 | 90 | 1004.6 |
| 20260507034038 | 56 | 99 | 0.0 | 0.0 | 0.00 | 0.00 | 0.00 | 89 | 1004.6 |
| 20260507033536 | 56 | 112 | 0.0 | 2.6 | 0.00 | 0.00 | 0.00 | 88 | 1004.5 |
| 20260507033033 | 56 | 123 | 0.9 | 0.9 | 0.00 | 0.00 | 0.00 | 88 | 1004.2 |
| 20260507032530 | 57 | 88 | 0.0 | 4.3 | 0.00 | 0.00 | 0.00 | 87 | 1004.3 |
| 20260507032026 | 57 | 156 | 1.7 | 2.6 | 0.00 | 0.00 | 0.00 | 88 | 1004.2 |
| 20260507031522 | 57 | 124 | 0.0 | 0.9 | 0.00 | 0.00 | 0.00 | 90 | 1004.0 |
| 20260507031020 | 58 | 146 | 0.0 | 0.9 | 0.00 | 0.00 | 0.00 | 93 | 1004.0 |
| 20260507030516 | 58 | 35 | 0.0 | 0.0 | 0.00 | 0.00 | 0.00 | 95 | 1003.7 |
| 20260507030015 | 59 | 22 | 0.9 | 0.9 | 0.00 | 0.00 | 0.00 | 95 | 1003.9 |
| 20260507025511 | 59 | 76 | 0.0 | 0.9 | 0.00 | 0.00 | 0.00 | 96 | 1003.8 |
| 20260507025009 | 59 | 119 | 0.0 | 0.0 | 0.00 | 0.00 | 0.00 | 95 | 1003.7 |
| 20260507024506 | 59 | 133 | 0.9 | 0.9 | 0.00 | 0.00 | 0.00 | 95 | 1004.0 |
| 20260507024003 | 59 | 132 | 0.9 | 0.9 | 0.00 | 0.00 | 0.00 | 95 | 1003.8 |
| 20260507023458 | 59 | 119 | 0.0 | 0.0 | 0.00 | 0.00 | 0.00 | 95 | 1003.7 |
| 20260507022956 | 59 | 124 | 0.0 | 0.9 | 0.00 | 0.00 | 0.00 | 95 | 1003.5 |
| 20260507022453 | 59 | 126 | 0.0 | 0.0 | 0.00 | 0.00 | 0.00 | 95 | 1003.6 |
| 20260507021948 | 59 | 134 | 0.9 | 0.9 | 0.00 | 0.00 | 0.00 | 95 | 1003.7 |
| 20260507021444 | 59 | 123 | 0.0 | 0.0 | 0.00 | 0.00 | 0.00 | 95 | 1003.6 |
| 20260507020941 | 59 | 133 | 0.0 | 0.9 | 0.00 | 0.00 | 0.00 | 95 | 1003.4 |
| 20260507020438 | 59 | 125 | 0.0 | 0.9 | 0.00 | 0.00 | 0.00 | 95 | 1003.4 |
| 20260507015935 | 59 | 132 | 0.0 | 0.0 | 0.00 | 0.00 | 0.00 | 95 | 1003.3 |
| 20260507015434 | 59 | 120 | 0.0 | 0.0 | 0.00 | 0.00 | 0.00 | 95 | 1003.4 |
| 20260507014930 | 59 | 118 | 0.0 | 0.9 | 0.00 | 0.00 | 0.00 | 95 | 1003.4 |
| 20260507014427 | 59 | 147 | 0.0 | 0.9 | 0.00 | 0.00 | 0.00 | 95 | 1003.3 |
| 20260507013923 | 59 | 120 | 0.0 | 0.0 | 0.00 | 0.00 | 0.00 | 95 | 1003.3 |
| 20260507013420 | 59 | 124 | 0.0 | 0.0 | 0.00 | 0.00 | 0.00 | 95 | 1003.5 |
| 20260507012918 | 59 | 114 | 0.0 | 0.0 | 0.00 | 0.00 | 0.00 | 95 | 1003.3 |
| 20260507012414 | 59 | 126 | 0.0 | 0.9 | 0.00 | 0.00 | 0.00 | 95 | 1003.4 |
| 20260507011910 | 59 | 120 | 0.0 | 0.9 | 0.00 | 0.00 | 0.00 | 95 | 1003.3 |
| 20260507011407 | 59 | 134 | 0.9 | 0.9 | 0.00 | 0.00 | 0.00 | 95 | 1003.4 |
| 20260507010902 | 59 | 151 | 0.0 | 0.9 | 0.00 | 0.00 | 0.00 | 95 | 1003.3 |
| 20260507010357 | 59 | 147 | 0.0 | 0.9 | 0.00 | 0.00 | 0.00 | 95 | 1003.4 |
| 20260507005855 | 59 | 117 | 0.9 | 0.9 | 0.00 | 0.00 | 0.00 | 95 | 1003.4 |
| 20260507005351 | 59 | 173 | 0.9 | 0.9 | 0.00 | 0.00 | 0.00 | 95 | 1003.5 |
| 20260507004848 | 59 | 128 | 0.0 | 0.9 | 0.00 | 0.00 | 0.00 | 95 | 1003.3 |
| 20260507004345 | 59 | 157 | 0.0 | 0.9 | 0.00 | 0.00 | 0.00 | 95 | 1003.4 |
| 20260507003842 | 59 | 161 | 0.0 | 0.9 | 0.00 | 0.00 | 0.00 | 95 | 1003.3 |
| 20260507003338 | 59 | 167 | 0.0 | 0.9 | 0.00 | 0.00 | 0.00 | 95 | 1003.3 |
| 20260507002833 | 59 | 130 | 0.0 | 0.9 | 0.00 | 0.00 | 0.00 | 95 | 1003.2 |
| 20260507002329 | 59 | 143 | 0.9 | 1.7 | 0.00 | 0.00 | 0.00 | 95 | 1003.3 |
| 20260507001827 | 59 | 95 | 0.0 | 0.9 | 0.00 | 0.00 | 0.00 | 95 | 1003.0 |
| 20260507001323 | 59 | 179 | 0.9 | 1.7 | 0.00 | 0.00 | 0.00 | 95 | 1003.1 |
| 20260507000820 | 59 | 116 | 0.0 | 0.0 | 0.00 | 0.00 | 0.00 | 95 | 1003.1 |
| 20260507000315 | 59 | 107 | 0.0 | 0.0 | 0.00 | 0.00 | 0.00 | 95 | 1003.4 |
| 20260506235812 | 59 | 152 | 0.9 | 0.9 | 0.00 | 0.00 | 0.00 | 95 | 1003.2 |
| 20260506235309 | 59 | 141 | 0.0 | 0.9 | 0.00 | 0.00 | 0.00 | 95 | 1002.8 |
| 20260506234805 | 59 | 131 | 0.0 | 1.7 | 0.00 | 0.00 | 0.00 | 95 | 1003.3 |
| 20260506234302 | 59 | 121 | 0.0 | 0.9 | 0.00 | 0.00 | 0.00 | 95 | 1002.9 |
| 20260506233800 | 59 | 127 | 0.0 | 0.0 | 0.00 | 0.00 | 0.00 | 95 | 1003.0 |
| 20260506233250 | 59 | 120 | 0.0 | 0.0 | 0.00 | 0.00 | 0.00 | 95 | 1003.0 |
| 20260506232747 | 59 | 129 | 0.0 | 0.0 | 0.00 | 0.00 | 0.00 | 95 | 1002.9 |
| 20260506232242 | 59 | 136 | 0.0 | 0.0 | 0.00 | 0.00 | 0.00 | 95 | 1003.0 |
| 20260506231740 | 59 | 144 | 0.0 | 0.9 | 0.00 | 0.00 | 0.00 | 95 | 1002.9 |
| 20260506231238 | 59 | 102 | 1.7 | 1.7 | 0.00 | 0.00 | 0.00 | 95 | 1003.1 |
| 20260506230734 | 59 | 115 | 0.0 | 0.9 | 0.00 | 0.00 | 0.00 | 94 | 1003.1 |
| 20260506230231 | 59 | 222 | 0.0 | 0.9 | 0.00 | 0.00 | 0.00 | 94 | 1003.1 |
| 20260506225728 | 59 | 126 | 0.0 | 0.9 | 0.00 | 0.00 | 0.00 | 94 | 1003.2 |
| 20260506225225 | 59 | 123 | 0.0 | 0.0 | 0.00 | 0.00 | 0.00 | 94 | 1003.1 |
| 20260506224721 | 59 | 153 | 0.0 | 0.9 | 0.00 | 0.00 | 0.00 | 94 | 1003.3 |
| 20260506224218 | 59 | 125 | 0.0 | 0.9 | 0.00 | 0.00 | 0.00 | 94 | 1003.4 |
| 20260506223715 | 59 | 126 | 0.0 | 0.9 | 0.00 | 0.00 | 0.00 | 94 | 1003.4 |
| 20260506223210 | 59 | 213 | 0.0 | 0.9 | 0.00 | 0.00 | 0.00 | 93 | 1003.3 |
| 20260506222708 | 59 | 151 | 0.0 | 4.3 | 0.00 | 0.00 | 0.00 | 93 | 1003.1 |
| 20260506222203 | 59 | 187 | 0.9 | 2.6 | 0.00 | 0.00 | 0.00 | 93 | 1003.1 |
| 20260506221701 | 59 | 193 | 1.7 | 1.7 | 0.00 | 0.00 | 0.00 | 93 | 1003.2 |
| 20260506221159 | 59 | 134 | 0.0 | 1.7 | 0.00 | 0.00 | 0.00 | 93 | 1003.5 |
| 20260506220656 | 59 | 144 | 0.9 | 0.9 | 0.00 | 0.00 | 0.00 | 93 | 1003.4 |
| 20260506220150 | 59 | 133 | 0.0 | 0.9 | 0.00 | 0.00 | 0.00 | 93 | 1003.5 |
| 20260506215648 | 59 | 128 | 0.9 | 2.6 | 0.00 | 0.00 | 0.00 | 92 | 1003.2 |
| 20260506215143 | 60 | 132 | 0.0 | 1.7 | 0.00 | 0.00 | 0.00 | 92 | 1003.5 |
| 20260506214640 | 60 | 148 | 0.0 | 0.9 | 0.00 | 0.00 | 0.00 | 92 | 1003.4 |
| 20260506214137 | 60 | 153 | 0.0 | 0.9 | 0.00 | 0.00 | 0.00 | 92 | 1003.4 |
| 20260506213636 | 60 | 357 | 0.9 | 1.7 | 0.00 | 0.00 | 0.00 | 92 | 1003.3 |
| 20260506213132 | 60 | 162 | 0.9 | 2.6 | 0.00 | 0.00 | 0.00 | 92 | 1003.6 |
| 20260506212630 | 60 | 104 | 0.0 | 2.6 | 0.00 | 0.00 | 0.00 | 92 | 1003.5 |
| 20260506212124 | 60 | 103 | 0.0 | 1.7 | 0.00 | 0.00 | 0.00 | 92 | 1003.5 |
| 20260506211620 | 60 | 129 | 0.0 | 0.9 | 0.00 | 0.00 | 0.00 | 92 | 1003.6 |
| 20260506211117 | 60 | 133 | 0.0 | 2.6 | 0.00 | 0.00 | 0.00 | 91 | 1003.7 |
| 20260506210614 | 60 | 124 | 0.0 | 0.9 | 0.00 | 0.00 | 0.00 | 91 | 1003.7 |
| 20260506210110 | 60 | 138 | 0.0 | 0.9 | 0.00 | 0.00 | 0.00 | 91 | 1004.1 |
| 20260506205608 | 60 | 118 | 0.9 | 2.6 | 0.00 | 0.00 | 0.00 | 92 | 1003.9 |
| 20260506205103 | 60 | 220 | 1.7 | 2.6 | 0.00 | 0.00 | 0.00 | 91 | 1004.0 |
| 20260506204601 | 60 | 196 | 1.7 | 4.3 | 0.00 | 0.00 | 0.00 | 91 | 1004.1 |
| 20260506204057 | 60 | 147 | 0.0 | 1.7 | 0.00 | 0.00 | 0.00 | 91 | 1004.0 |
| 20260506203556 | 60 | 241 | 1.7 | 2.6 | 0.00 | 0.00 | 0.00 | 91 | 1004.2 |
| 20260506203052 | 60 | 153 | 1.7 | 2.6 | 0.00 | 0.00 | 0.00 | 90 | 1004.0 |
| 20260506202550 | 61 | 189 | 0.0 | 1.7 | 0.00 | 0.00 | 0.00 | 90 | 1003.9 |
| 20260506202046 | 61 | 149 | 0.9 | 1.7 | 0.00 | 0.00 | 0.00 | 90 | 1004.1 |
| 20260506201544 | 61 | 168 | 0.9 | 0.9 | 0.00 | 0.00 | 0.00 | 89 | 1004.0 |
| 20260506201040 | 62 | 122 | 0.0 | 1.7 | 0.00 | 0.00 | 0.00 | 89 | 1004.0 |
| 20260506200536 | 62 | 103 | 0.9 | 0.9 | 0.00 | 0.00 | 0.00 | 88 | 1004.2 |
| 20260506200033 | 62 | 109 | 0.9 | 2.6 | 0.00 | 0.00 | 0.00 | 86 | 1004.0 |
| 20260506195530 | 62 | 146 | 0.0 | 0.9 | 0.00 | 0.00 | 0.00 | 86 | 1004.3 |
| 20260506195026 | 62 | 268 | 0.9 | 1.7 | 0.00 | 0.00 | 0.00 | 85 | 1004.4 |
| 20260506194524 | 62 | 125 | 0.9 | 1.7 | 0.00 | 0.00 | 0.00 | 86 | 1004.0 |
| 20260506194020 | 62 | 240 | 0.9 | 2.6 | 0.00 | 0.00 | 0.00 | 86 | 1004.3 |
| 20260506193518 | 62 | 230 | 0.9 | 2.6 | 0.00 | 0.00 | 0.00 | 86 | 1004.2 |
| 20260506193015 | 62 | 138 | 0.0 | 0.9 | 0.00 | 0.00 | 0.00 | 86 | 1004.2 |
| 20260506192511 | 62 | 184 | 0.0 | 0.9 | 0.00 | 0.00 | 0.00 | 87 | 1004.1 |
| 20260506192007 | 62 | 141 | 0.9 | 0.9 | 0.00 | 0.00 | 0.00 | 88 | 1004.2 |
| 20260506191504 | 62 | 130 | 0.0 | 0.9 | 0.00 | 0.00 | 0.00 | 88 | 1004.2 |
| 20260506191001 | 62 | 173 | 0.0 | 0.9 | 0.00 | 0.00 | 0.00 | 88 | 1004.2 |
| 20260506190458 | 63 | 118 | 0.0 | 0.0 | 0.00 | 0.00 | 0.00 | 89 | 1003.9 |
| 20260506185954 | 63 | 125 | 0.0 | 0.0 | 0.00 | 0.00 | 0.00 | 88 | 1004.1 |
| 20260506185452 | 63 | 102 | 0.0 | 0.0 | 0.00 | 0.00 | 0.00 | 87 | 1004.3 |
| 20260506184948 | 63 | 124 | 0.0 | 0.9 | 0.00 | 0.00 | 0.00 | 87 | 1004.4 |
| 20260506184446 | 63 | 113 | 0.0 | 0.0 | 0.00 | 0.00 | 0.00 | 85 | 1004.3 |
| 20260506183943 | 64 | 149 | 0.9 | 0.9 | 0.00 | 0.00 | 0.00 | 83 | 1004.5 |
| 20260506183438 | 64 | 125 | 0.0 | 0.9 | 0.00 | 0.00 | 0.00 | 82 | 1004.6 |